GW1627 Weather Reports


time (UTC)temp
C
wind
direction
speed
KPH
gust
KPH
rain 1hr
cm
rain 24hr
cm
rain mn
cm
humidity
%
barometer
mb
20260906123113 16 83 3.2 9.7 0.00 0.03 0.03 94 1020.2
20260906122545 16 0 0.0 1.6 0.00 0.03 0.03 94 1020.1
20260906122043 16 0 0.0 3.2 0.00 0.03 0.03 94 1019.9
20260906121607 16 0 0.0 4.8 0.00 0.03 0.03 94 1020.0
20260906121046 16 0 0.0 4.8 0.03 0.03 0.03 94 1019.9
20260906120543 15 0 0.0 4.8 0.03 0.03 0.03 94 1019.8
20260906120145 15 80 0.0 4.8 0.03 0.03 0.03 94 1019.9
20260906115544 15 0 0.0 0.0 0.03 0.03 0.03 94 1020.0
20260906115046 15 0 0.0 0.0 0.03 0.03 0.03 94 1019.9
20260906114632 15 0 0.0 0.0 0.03 0.03 0.03 94 1019.9
20260906114042 15 0 0.0 0.0 0.03 0.03 0.03 94 1019.9
20260906113543 16 0 0.0 0.0 0.03 0.03 0.03 94 1019.9
20260906113103 16 0 0.0 0.0 0.03 0.03 0.03 94 1019.9
20260906112545 16 0 0.0 0.0 0.03 0.03 0.03 94 1019.9
20260906112045 16 0 0.0 1.6 0.03 0.03 0.03 94 1019.8
20260906111617 16 0 0.0 1.6 0.00 0.00 0.00 94 1019.7
20260906111046 16 0 0.0 1.6 0.00 0.00 0.00 94 1019.6
20260906110544 16 0 0.0 0.0 0.00 0.00 0.00 94 1019.3
20260906110053 16 0 0.0 3.2 0.00 0.00 0.00 94 1019.1
20260906105543 16 0 0.0 3.2 0.00 0.00 0.00 94 1018.8
20260906105045 16 0 1.6 3.2 0.00 0.00 0.00 94 1018.7
20260906104600 16 0 0.0 4.8 0.00 0.00 0.00 94 1018.8
20260906104042 16 0 0.0 4.8 0.00 0.00 0.00 94 1018.8
20260906103542 16 0 0.0 4.8 0.00 0.00 0.00 94 1018.8
20260906103057 16 80 0.0 4.8 0.00 0.00 0.00 94 1018.9
20260906102547 16 0 0.0 1.6 0.00 0.00 0.00 94 1018.9
20260906102048 16 0 0.0 0.0 0.00 0.00 0.00 94 1018.9
20260906101554 16 0 0.0 0.0 0.00 0.00 0.00 94 1019.0
20260906101050 16 0 0.0 0.0 0.00 0.00 0.00 94 1018.9
20260906100548 16 0 0.0 0.0 0.00 0.00 0.00 94 1018.8
20260906100103 16 0 0.0 0.0 0.00 0.00 0.00 94 1018.8
20260906095547 16 0 0.0 0.0 0.00 0.00 0.00 94 1018.8
20260906095048 16 0 0.0 0.0 0.00 0.00 0.00 94 1018.9
20260906094604 17 0 0.0 0.0 0.00 0.00 0.00 94 1018.9
20260906094047 17 0 0.0 0.0 0.00 0.00 0.00 94 1018.8
20260906093548 17 0 0.0 0.0 0.00 0.00 0.00 94 1018.8
20260906093057 17 0 0.0 0.0 0.00 0.00 0.00 94 1018.9
20260906092548 17 0 0.0 0.0 0.00 0.00 0.00 94 1019.0
20260906092048 17 0 0.0 0.0 0.00 0.00 0.00 94 1018.9
20260906091554 17 0 0.0 0.0 0.00 0.00 0.00 94 1018.8
20260906091047 17 0 0.0 0.0 0.00 0.00 0.00 94 1018.7
20260906090547 17 0 0.0 0.0 0.00 0.00 0.00 94 1018.8
20260906085551 17 0 0.0 0.0 0.00 0.00 0.00 94 1019.0
20260906085047 17 0 0.0 0.0 0.00 0.00 0.00 94 1019.0
20260906084603 17 0 0.0 0.0 0.00 0.00 0.00 94 1018.9
20260906084047 17 0 0.0 0.0 0.00 0.00 0.00 94 1018.8
20260906083548 17 0 0.0 0.0 0.00 0.00 0.00 94 1018.8
20260906083103 17 0 0.0 0.0 0.00 0.00 0.00 94 1018.8
20260906082544 17 0 0.0 0.0 0.00 0.00 0.00 94 1018.9
20260906082048 17 0 0.0 0.0 0.00 0.00 0.00 94 1018.9
20260906081602 17 0 0.0 0.0 0.00 0.00 0.00 94 1018.9
20260906081047 17 0 0.0 0.0 0.00 0.00 0.00 94 1018.8
20260906080547 17 0 0.0 0.0 0.00 0.00 0.00 94 1018.9
20260906080103 17 0 0.0 0.0 0.00 0.00 0.00 94 1018.9
20260906075551 17 0 0.0 0.0 0.00 0.00 0.00 93 1018.7
20260906075047 16 0 0.0 0.0 0.00 0.00 0.00 93 1018.8
20260906074603 16 0 0.0 0.0 0.00 0.00 0.00 93 1018.8
20260906074048 16 0 0.0 0.0 0.00 0.00 0.00 92 1018.7
20260906073548 17 0 0.0 0.0 0.00 0.00 0.00 92 1018.8
20260906073057 17 0 0.0 0.0 0.00 0.00 0.00 93 1018.8
20260906072549 17 0 0.0 0.0 0.00 0.00 0.00 93 1018.7
20260906072047 17 0 0.0 0.0 0.00 0.00 0.00 92 1018.8
20260906071557 17 0 0.0 0.0 0.00 0.00 0.00 92 1018.9
20260906071049 17 0 0.0 0.0 0.00 0.00 0.00 92 1018.8
20260906070550 17 0 0.0 0.0 0.00 0.00 0.00 92 1018.9
20260906065548 17 0 0.0 0.0 0.00 0.00 0.00 92 1018.8
20260906065048 17 0 0.0 0.0 0.00 0.00 0.00 92 1019.0
20260906064556 17 0 0.0 0.0 0.00 0.00 0.00 92 1019.0
20260906064048 17 0 0.0 0.0 0.00 0.00 0.00 92 1019.0
20260906063547 17 0 0.0 0.0 0.00 0.00 0.00 92 1018.9
20260906063055 17 0 0.0 0.0 0.00 0.00 0.00 92 1018.9
20260906062547 17 0 0.0 0.0 0.00 0.00 0.00 92 1018.9
20260906062047 17 0 0.0 0.0 0.00 0.00 0.00 92 1019.0
20260906061556 17 0 0.0 0.0 0.00 0.00 0.00 92 1019.1
20260906061047 18 0 0.0 0.0 0.00 0.00 0.00 92 1019.1
20260906060547 18 0 0.0 0.0 0.00 0.00 0.00 92 1019.0
20260906060100 18 0 0.0 0.0 0.00 0.00 0.00 92 1019.0
20260906055547 18 0 0.0 0.0 0.00 0.00 0.00 92 1018.9
20260906055047 18 0 0.0 0.0 0.00 0.00 0.00 92 1019.0
20260906054616 18 0 0.0 0.0 0.00 0.00 0.00 92 1018.9
20260906054048 18 0 0.0 0.0 0.00 0.00 0.00 91 1018.9
20260906053547 18 0 0.0 0.0 0.00 0.00 0.00 92 1018.9
20260906053059 18 0 0.0 0.0 0.00 0.00 0.00 92 1018.8
20260906052547 18 0 0.0 0.0 0.00 0.00 0.00 92 1018.8
20260906052048 18 0 0.0 0.0 0.00 0.00 0.00 91 1018.7
20260906051556 18 0 0.0 0.0 0.00 0.00 0.00 91 1018.8
20260906051047 18 0 0.0 0.0 0.00 0.00 0.00 91 1018.8
20260906050546 18 0 0.0 0.0 0.00 0.00 0.00 92 1018.7
20260906050104 18 0 0.0 0.0 0.00 0.00 0.00 92 1018.8
20260906045548 18 0 0.0 0.0 0.00 0.00 0.00 92 1018.9
20260906045048 18 0 0.0 0.0 0.00 0.00 0.00 91 1019.0
20260906044552 18 0 0.0 0.0 0.00 0.00 0.00 91 1018.8
20260906044047 18 0 0.0 0.0 0.00 0.00 0.00 91 1018.8
20260906043546 18 0 0.0 0.0 0.00 0.00 0.00 91 1018.7
20260906043100 19 0 0.0 0.0 0.00 0.00 0.00 91 1018.6
20260906042546 19 0 0.0 0.0 0.00 0.00 0.00 91 1018.5
20260906042142 19 0 0.0 0.0 0.00 0.00 0.00 91 1018.6
20260906041604 19 0 0.0 0.0 0.00 0.00 0.00 91 1018.6
20260906041048 19 0 0.0 0.0 0.00 0.00 0.00 91 1018.5
20260906040546 19 0 0.0 4.8 0.00 0.00 0.00 91 1018.5
20260906035548 19 0 0.0 3.2 0.00 0.00 0.00 91 1018.4
20260906035048 19 0 0.0 0.0 0.00 0.00 0.00 91 1018.3
20260906034600 19 0 0.0 6.4 0.00 0.00 0.00 91 1018.3
20260906034049 20 0 0.0 6.4 0.00 0.00 0.00 91 1018.1
20260906033548 20 0 0.0 4.8 0.00 0.00 0.00 90 1018.0
20260906033131 20 0 0.0 3.2 0.00 0.00 0.00 90 1017.9
20260906032546 20 0 0.0 6.4 0.00 0.00 0.00 90 1018.0
20260906032047 20 67 0.0 6.4 0.00 0.00 0.00 90 1018.1
20260906031615 20 82 1.6 6.4 0.00 0.00 0.00 90 1018.1
20260906031048 20 0 0.0 8.0 0.00 0.00 0.00 90 1018.0
20260906030549 20 63 3.2 8.0 0.00 0.00 0.00 90 1018.0
20260906030106 20 0 3.2 8.0 0.00 0.00 0.00 90 1017.8
20260906025544 20 0 0.0 12.9 0.00 0.00 0.00 90 1017.8
20260906025048 20 66 3.2 12.9 0.00 0.00 0.00 90 1017.9
20260906024607 20 93 4.8 9.7 0.00 0.00 0.00 90 1017.8
20260906024050 20 88 3.2 9.7 0.00 0.00 0.00 90 1017.7
20260906023547 21 67 3.2 9.7 0.00 0.00 0.00 90 1017.7
20260906023104 21 360 4.8 9.7 0.00 0.00 0.00 90 1017.7
20260906022548 21 360 3.2 9.7 0.00 0.00 0.00 90 1017.6
20260906022048 21 360 4.8 12.9 0.00 0.00 0.00 90 1017.5
20260906021615 21 0 4.8 12.9 0.00 0.00 0.00 90 1017.4
20260906021048 21 360 3.2 9.7 0.00 0.00 0.00 90 1017.3
20260906020547 21 360 3.2 9.7 0.00 0.00 0.00 89 1017.2
20260906015547 21 360 3.2 9.7 0.00 0.00 0.00 89 1017.0
20260906015046 21 0 3.2 9.7 0.00 0.00 0.00 89 1017.0
20260906014556 21 0 3.2 9.7 0.00 0.00 0.00 89 1016.8
20260906014050 21 360 4.8 14.5 0.00 0.00 0.00 89 1016.7
20260906013550 21 360 3.2 16.1 0.00 0.00 0.00 88 1016.6
20260906013107 21 360 4.8 16.1 0.00 0.00 0.00 88 1016.6
20260906012545 21 360 6.4 16.1 0.00 0.00 0.00 88 1016.5
20260906012047 21 360 4.8 9.7 0.00 0.00 0.00 88 1016.6
20260906011607 21 360 4.8 8.0 0.00 0.00 0.00 88 1016.6
20260906011049 22 360 1.6 8.0 0.00 0.00 0.00 87 1016.6
20260906010548 22 0 3.2 9.7 0.00 0.00 0.00 87 1016.7
20260906010100 22 360 3.2 9.7 0.00 0.00 0.00 86 1016.5
20260906005548 22 360 3.2 9.7 0.00 0.00 0.00 86 1016.6
20260906005048 22 360 1.6 8.0 0.00 0.00 0.00 85 1016.6
20260906004600 22 360 1.6 8.0 0.00 0.00 0.00 85 1016.7
20260906004047 22 0 0.0 6.4 0.00 0.00 0.00 84 1016.8
20260906003547 22 360 0.0 1.6 0.00 0.00 0.00 84 1016.8
20260906003057 22 0 0.0 3.2 0.00 0.00 0.00 83 1016.8
20260906002547 23 0 0.0 3.2 0.00 0.00 0.00 83 1016.9
20260906002049 23 0 0.0 6.4 0.00 0.00 0.00 83 1016.9
20260906001604 23 0 0.0 6.4 0.00 0.00 0.00 83 1016.9
20260906001048 23 79 0.0 3.2 0.00 0.00 0.00 82 1017.0
20260906000551 23 0 0.0 3.2 0.00 0.00 0.00 81 1017.0
20260906000108 23 0 0.0 4.8 0.00 0.00 0.00 81 1017.0
20260905235549 23 0 0.0 4.8 0.00 0.00 0.00 80 1017.0
20260905235048 24 62 0.0 1.6 0.00 0.00 0.00 80 1016.9
20260905234602 24 0 0.0 0.0 0.00 0.00 0.00 79 1016.9
20260905234047 25 0 0.0 0.0 0.00 0.00 0.00 78 1016.8
20260905233549 25 0 0.0 0.0 0.00 0.00 0.00 77 1016.7
20260905233103 25 0 0.0 4.8 0.00 0.00 0.00 77 1016.6
20260905232544 25 0 0.0 4.8 0.00 0.00 0.00 76 1016.6
20260905232050 25 36 0.0 4.8 0.00 0.00 0.00 75 1016.7
20260905231554 25 0 0.0 0.0 0.00 0.00 0.00 76 1016.7
20260905231047 26 0 0.0 6.4 0.00 0.00 0.00 76 1016.8
20260905230550 26 0 0.0 12.9 0.00 0.00 0.00 74 1016.8
20260905230103 26 0 1.6 12.9 0.00 0.00 0.00 74 1016.8
20260905225544 26 76 1.6 12.9 0.00 0.00 0.00 74 1016.7
20260905225051 26 0 0.0 4.8 0.00 0.00 0.00 77 1016.6
20260905224556 25 0 0.0 0.0 0.00 0.00 0.00 77 1016.7
20260905224046 25 0 0.0 0.0 0.00 0.00 0.00 76 1016.7
20260905223547 25 0 0.0 0.0 0.00 0.00 0.00 76 1016.8
20260905223054 25 0 0.0 1.6 0.00 0.00 0.00 77 1016.7
20260905222548 25 0 0.0 9.7 0.00 0.00 0.00 76 1016.8
20260905222047 25 0 0.0 14.5 0.00 0.00 0.00 76 1016.8
20260905221604 25 76 4.8 14.5 0.00 0.00 0.00 76 1016.6
20260905221047 26 0 0.0 6.4 0.00 0.00 0.00 78 1016.6
20260905220545 26 0 0.0 6.4 0.00 0.00 0.00 75 1016.6
20260905220059 26 352 0.0 6.4 0.00 0.00 0.00 74 1016.5
20260905215547 26 352 1.6 12.9 0.00 0.00 0.00 74 1016.3
20260905215044 26 0 3.2 12.9 0.00 0.00 0.00 75 1016.2
20260905214556 26 73 0.0 6.4 0.00 0.00 0.00 77 1016.2
20260905214050 26 0 0.0 6.4 0.00 0.00 0.00 74 1016.4
20260905213543 26 0 0.0 4.8 0.00 0.00 0.00 75 1016.4
20260905213110 26 0 0.0 8.0 0.00 0.00 0.00 75 1016.5
20260905212547 26 0 0.0 8.0 0.00 0.00 0.00 75 1016.7
20260905212047 26 351 3.2 8.0 0.00 0.00 0.00 73 1016.6
20260905211607 26 350 0.0 8.0 0.00 0.00 0.00 71 1016.7
20260905211051 26 44 0.0 8.0 0.00 0.00 0.00 73 1016.6
20260905210544 26 59 0.0 8.0 0.00 0.00 0.00 74 1016.7
20260905210106 26 0 1.6 6.4 0.00 0.00 0.00 75 1016.8
20260905205547 26 0 0.0 6.4 0.00 0.00 0.00 76 1016.8
20260905205050 25 0 0.0 8.0 0.00 0.00 0.00 76 1016.8
20260905204608 25 342 0.0 8.0 0.00 0.00 0.00 75 1017.0
20260905204053 25 344 0.0 6.4 0.00 0.00 0.00 77 1017.0
20260905203547 25 0 0.0 6.4 0.00 0.00 0.00 77 1016.9
20260905203119 25 0 0.0 6.4 0.00 0.00 0.00 76 1017.0
20260905202543 25 0 0.0 14.5 0.00 0.00 0.00 78 1016.9
20260905202048 25 0 0.0 17.7 0.00 0.00 0.00 76 1016.8
20260905201610 25 72 9.7 17.7 0.00 0.00 0.00 76 1016.7
20260905201047 26 59 4.8 14.5 0.00 0.00 0.00 78 1016.6
20260905200548 25 107 3.2 17.7 0.00 0.00 0.00 78 1016.5
20260905200120 25 56 6.4 17.7 0.00 0.00 0.00 78 1016.5
20260905195550 25 55 3.2 16.1 0.00 0.00 0.00 78 1016.6
20260905195044 25 82 6.4 16.1 0.00 0.00 0.00 77 1016.7
20260905194607 25 0 0.0 6.4 0.00 0.00 0.00 80 1016.8
20260905194051 25 90 0.0 16.1 0.00 0.00 0.00 80 1016.9
20260905193550 25 0 0.0 16.1 0.00 0.00 0.00 79 1016.9
20260905193059 25 55 3.2 16.1 0.00 0.00 0.00 78 1017.0
20260905192547 25 305 0.0 11.3 0.00 0.00 0.00 80 1017.0
20260905192044 25 70 1.6 12.9 0.00 0.00 0.00 79 1017.0
20260905191602 25 16 4.8 12.9 0.00 0.00 0.00 80 1017.0
20260905191050 25 0 0.0 12.9 0.00 0.00 0.00 79 1017.0
20260905190547 25 75 4.8 12.9 0.00 0.00 0.00 79 1017.1
20260905190101 25 100 0.0 6.4 0.00 0.00 0.00 78 1017.0
20260905185543 25 94 0.0 6.4 0.00 0.00 0.00 78 1017.1
20260905185046 25 0 1.6 12.9 0.00 0.00 0.00 78 1017.1
20260905184606 25 0 0.0 12.9 0.00 0.00 0.00 79 1017.1
20260905184046 25 77 1.6 11.3 0.00 0.00 0.00 80 1017.1
20260905183543 25 0 3.2 11.3 0.00 0.00 0.00 80 1017.2
20260905183103 25 71 0.0 8.0 0.00 0.00 0.00 82 1017.3
20260905182543 25 49 1.6 8.0 0.00 0.00 0.00 81 1017.2
20260905182045 25 332 0.0 9.7 0.00 0.00 0.00 82 1017.3
20260905181606 25 0 1.6 9.7 0.00 0.00 0.00 83 1017.3
20260905181042 24 78 1.6 14.5 0.00 0.00 0.00 85 1017.2
20260905180546 24 96 6.4 14.5 0.00 0.00 0.00 83 1017.2
20260905180106 24 98 0.0 9.7 0.00 0.00 0.00 85 1017.3
20260905175545 23 0 0.0 12.9 0.00 0.13 0.00 85 1017.3
20260905175049 23 76 3.2 12.9 0.00 0.13 0.00 84 1017.3
20260905174557 23 73 3.2 12.9 0.00 0.13 0.00 85 1017.4
20260905174050 23 0 1.6 8.0 0.00 0.13 0.00 86 1017.4
20260905173547 23 0 0.0 8.0 0.00 0.13 0.00 86 1017.5
20260905173106 23 0 0.0 6.4 0.00 0.13 0.00 89 1017.4
20260905172544 22 138 0.0 6.4 0.00 0.13 0.00 89 1017.4
20260905172044 22 81 1.6 6.4 0.00 0.13 0.00 88 1017.3
20260905171602 22 0 1.6 6.4 0.00 0.13 0.00 89 1017.5
20260905171043 22 0 0.0 4.8 0.00 0.13 0.00 89 1017.5
20260905170543 22 0 0.0 4.8 0.00 0.13 0.00 90 1017.6
20260905170114 22 0 0.0 8.0 0.00 0.13 0.00 89 1017.6
20260905165542 22 0 1.6 12.9 0.00 0.13 0.00 90 1017.6
20260905165045 22 67 1.6 12.9 0.00 0.13 0.00 90 1017.6
20260905164559 22 88 0.0 6.4 0.00 0.13 0.00 91 1017.7
20260905164041 22 0 0.0 6.4 0.00 0.13 0.00 91 1017.7
20260905163542 21 84 0.0 4.8 0.00 0.13 0.00 91 1017.7
20260905163103 21 0 0.0 3.2 0.00 0.13 0.00 91 1017.7
20260905162544 21 0 0.0 6.4 0.00 0.13 0.00 91 1017.7
20260905162044 21 49 0.0 6.4 0.00 0.13 0.00 92 1017.7
20260905161600 21 49 1.6 9.7 0.00 0.13 0.00 91 1017.7
20260905161042 21 78 3.2 9.7 0.00 0.13 0.00 92 1017.6
20260905160542 21 74 1.6 14.5 0.00 0.13 0.00 92 1017.6
20260905160059 21 56 3.2 14.5 0.00 0.13 0.00 92 1017.4
20260905155628 21 53 4.8 12.9 0.00 0.13 0.00 92 1017.4
20260905155043 21 69 8.0 14.5 0.00 0.13 0.00 92 1017.4
20260905154613 21 96 3.2 14.5 0.00 0.13 0.00 92 1017.5
20260905154049 21 76 4.8 11.3 0.00 0.13 0.00 93 1017.5
20260905153549 21 0 1.6 8.0 0.00 0.13 0.00 93 1017.5
20260905153101 21 19 1.6 11.3 0.00 0.13 0.00 93 1017.4
20260905152548 21 44 4.8 11.3 0.00 0.13 0.00 94 1017.4
20260905152047 21 69 1.6 12.9 0.00 0.13 0.00 94 1017.4
20260905151612 21 71 1.6 12.9 0.00 0.13 0.00 94 1017.4
20260905151047 21 0 1.6 9.7 0.00 0.13 0.00 94 1017.4
20260905150547 21 0 0.0 8.0 0.00 0.13 0.00 94 1017.2
20260905150058 21 0 1.6 14.5 0.00 0.13 0.00 94 1017.2
20260905145548 21 18 1.6 14.5 0.00 0.48 0.00 94 1017.2
20260905145047 21 63 4.8 14.5 0.00 0.48 0.00 95 1017.0
20260905144604 21 48 4.8 14.5 0.00 0.48 0.00 95 1017.0
20260905144049 21 89 1.6 12.9 0.00 0.48 0.00 95 1017.0
20260905143546 21 76 4.8 12.9 0.00 0.48 0.00 95 1016.8
20260905143104 21 0 3.2 12.9 0.00 0.48 0.00 95 1016.8
20260905142551 21 76 3.2 17.7 0.00 0.48 0.00 95 1016.7
20260905142047 21 69 3.2 17.7 0.00 0.48 0.00 95 1016.7
20260905141604 21 92 8.0 17.7 0.00 0.48 0.00 95 1016.4
20260905141047 21 65 4.8 11.3 0.00 0.48 0.00 95 1016.2
20260905140548 21 74 4.8 12.9 0.00 0.48 0.00 95 1016.3
20260905140057 21 72 4.8 14.5 0.00 0.48 0.00 95 1016.3
20260905135547 21 85 6.4 14.5 0.00 0.84 0.00 95 1016.2
20260905135047 21 74 1.6 8.0 0.00 0.84 0.00 95 1016.2
20260905134605 21 56 1.6 12.9 0.00 0.84 0.00 95 1016.2
20260905134048 21 0 1.6 12.9 0.00 0.84 0.00 95 1016.1
20260905133549 21 78 3.2 12.9 0.00 0.84 0.00 95 1016.0
20260905133103 21 71 3.2 14.5 0.00 0.84 0.00 95 1016.0
20260905132548 21 78 6.4 14.5 0.00 0.84 0.00 95 1015.8
20260905132050 21 84 4.8 12.9 0.00 0.84 0.00 95 1015.9
20260905131607 21 105 1.6 11.3 0.00 0.84 0.00 95 1016.0
20260905131047 21 70 3.2 12.9 0.00 0.84 0.00 95 1015.9
20260905130547 21 69 4.8 14.5 0.00 0.84 0.00 95 1015.9
20260905130056 21 100 4.8 14.5 0.00 0.84 0.00 95 1015.7
20260905125546 21 69 6.4 14.5 0.00 0.84 0.00 95 1015.7
20260905125045 21 87 1.6 9.7 0.00 0.84 0.00 95 1015.7
20260905124603 21 0 1.6 11.3 0.00 0.84 0.00 95 1015.7
20260905124045 21 0 1.6 11.3 0.00 0.84 0.00 95 1015.8
20260905123542 21 86 0.0 8.0 0.00 0.84 0.00 95 1015.7